QPF
0.00 0.00 0.00 0.00 0.00 0.00 0.00 0.00 0.00 0.00 0.00 0.00 0.00 0.00 0.00 0.00 0.00 0.00 0.00 0.00 0.00 0.00 0.00 0.00 0.00 0.00 0.00 0.00 0.00 0.00 0.00 0.00 0.00 0.00 0.00 0.00 0.00 0.00 0.00 0.00 0.00 0.00 0.00 0.00 0.00
0.00 0.00 0.00 0.00 0.00 0.00 0.00 0.00 0.00 0.00 0.00 0.00 0.00 0.00 0.00 0.00 0.00 0.00 0.00 0.00 0.00 0.00 0.00 0.00 0.00 0.00 0.00 0.00 0.00 0.01 0.00 0.00 0.00 0.00 0.00 0.00 0.00 0.00 0.00 0.00 0.00 0.00 0.00 0.00 0.00
0.00 0.00 0.00 0.00 0.00 0.00 0.00 0.00 0.00 0.00 0.00 0.00 0.01 0.01 0.00 0.00 0.00 0.00 0.00 0.00 0.00 0.00 0.00 0.00 0.00 0.00 0.00 0.00 0.01 0.01 0.00 0.00 0.00 0.00 0.00 0.00 0.00 0.00 0.00 0.00 0.00 0.00 0.00 0.00 0.00
0.00 0.00 0.01 0.01 0.01 0.01 0.01 0.00 0.00 0.00 0.00 0.02 0.05 0.02 0.00 0.00 0.00 0.00 0.00 0.00 0.00 0.00 0.00 0.00 0.00 0.00 0.00 0.00 0.01 0.02 0.00 0.00 0.00 0.00 0.00 0.00 0.00 0.00 0.00 0.00 0.00 0.00 0.00 0.00 0.00
0.01 0.01 0.01 0.02 0.03 0.03 0.03 0.03 0.02 0.01 0.01 0.05 0.08 0.02 0.00 0.00 0.00 0.00 0.00 0.00 0.00 0.00 0.00 0.00 0.00 0.00 0.00 0.00 0.00 0.01 0.00 0.01 0.00 0.00 0.00 0.00 0.00 0.00 0.00 0.00 0.00 0.00 0.00 0.00 0.00
0.01 0.01 0.02 0.03 0.03 0.03 0.04 0.04 0.05 0.04 0.03 0.06 0.11 0.02 0.00 0.00 0.00 0.00 0.00 0.00 0.00 0.00 0.00 0.00 0.00 0.00 0.00 0.00 0.00 0.00 0.00 0.01 0.01 0.01 0.00 0.00 0.00 0.00 0.00 0.00 0.00 0.00 0.00 0.00 0.00
0.02 0.02 0.04 0.04 0.03 0.05 0.04 0.04 0.06 0.08 0.11 0.18 0.11 0.01 0.01 0.00 0.00 0.00 0.00 0.00 0.00 0.00 0.00 0.00 0.00 0.00 0.00 0.00 0.00 0.00 0.00 0.00 0.00 0.00 0.00 0.01 0.00 0.00 0.00 0.00 0.00 0.00 0.00 0.00 0.00
0.03 0.03 0.02 0.02 0.04 0.02 0.02 0.05 0.04 0.06 0.16 0.23 0.07 0.01 0.02 0.00 0.00 0.00 0.00 0.00 0.00 0.00 0.00 0.00 0.00 0.00 0.00 0.00 0.00 0.00 0.01 0.00 0.00 0.00 0.00 0.01 0.01 0.00 0.00 0.00 0.00 0.00 0.00 0.00 0.00
0.02 0.01 0.01 0.01 0.01 0.02 0.02 0.01 0.01 0.08 0.12 0.07 0.04 0.06 0.03 0.00 0.00 0.00 0.00 0.00 0.00 0.00 0.00 0.00 0.00 0.00 0.00 0.00 0.00 0.00 0.01 0.00 0.00 0.00 0.00 0.01 0.00 0.00 0.00 0.00 0.00 0.00 0.00 0.00 0.00
0.00 0.00 0.00 0.00 0.01 0.01 0.01 0.01 0.02 0.04 0.05 0.02 0.07 0.04 0.01 0.00 0.00 0.00 0.00 0.00 0.00 0.00 0.00 0.00 0.00 0.00 0.00 0.00 0.01 0.00 0.01 0.00 0.01 0.02 0.03 0.00 0.00 0.00 0.00 0.00 0.00 0.00 0.00 0.00 0.00
0.00 0.00 0.00 0.01 0.00 0.01 0.01 0.01 0.01 0.00 0.01 0.00 0.01 0.01 0.00 0.01 0.02 0.00 0.00 0.00 0.00 0.00 0.00 0.00 0.00 0.00 0.00 0.00 0.00 0.01 0.05 0.07 0.01 0.00 0.04 0.10 0.04 0.00 0.00 0.00 0.00 0.00 0.00 0.00 0.00
0.00 0.00 0.00 0.02 0.00 0.00 0.00 0.00 0.00 0.00 0.00 0.00 0.00 0.00 0.00 0.02 0.02 0.00 0.00 0.00 0.00 0.00 0.00 0.00 0.00 0.00 0.00 0.00 0.00 0.00 0.00 0.00 0.00 0.00 0.02 0.02 0.02 0.00 0.00 0.00 0.00 0.00 0.00 0.00 0.00
0.00 0.00 0.01 0.01 0.00 0.00 0.00 0.00 0.00 0.00 0.04 0.02 0.00 0.00 0.00 0.00 0.00 0.00 0.00 0.00 0.00 0.00 0.00 0.00 0.00 0.00 0.00 0.00 0.00 0.00 0.00 0.00 0.00 0.00 0.00 0.01 0.01 0.00 0.00 0.00 0.00 0.00 0.00 0.00 0.00
0.00 0.00 0.01 0.00 0.00 0.00 0.00 0.00 0.00 0.00 0.05 0.01 0.00 0.00 0.00 0.00 0.00 0.00 0.00 0.00 0.00 0.00 0.00 0.00 0.00 0.00 0.00 0.00 0.00 0.00 0.00 0.00 0.00 0.00 0.01 0.01 0.01 0.00 0.00 0.00 0.00 0.00 0.00 0.00 0.00
0.01 0.01 0.00 0.00 0.00 0.00 0.00 0.00 0.00 0.00 0.03 0.00 0.00 0.00 0.00 0.00 0.00 0.00 0.00 0.00 0.00 0.00 0.00 0.00 0.00 0.00 0.00 0.00 0.00 0.00 0.00 0.00 0.00 0.00 0.01 0.00 0.01 0.00 0.00 0.00 0.00 0.00 0.00 0.00 0.00
0.00 0.01 0.00 0.00 0.00 0.00 0.00 0.00 0.00 0.00 0.00 0.00 0.00 0.00 0.00 0.00 0.00 0.00 0.00 0.00 0.00 0.00 0.00 0.00 0.00 0.00 0.00 0.00 0.00 0.00 0.00 0.00 0.00 0.00 0.01 0.00 0.00 0.00 0.00 0.00 0.00 0.00 0.00 0.00 0.00
0.00 0.01 0.01 0.00 0.00 0.00 0.00 0.00 0.00 0.00 0.00 0.00 0.00 0.00 0.00 0.00 0.00 0.00 0.00 0.00 0.00 0.00 0.00 0.00 0.00 0.00 0.00 0.00 0.00 0.00 0.00 0.00 0.00 0.00 0.00 0.00 0.00 0.00 0.00 0.00 0.00 0.00 0.00 0.00 0.00
0.00 0.00 0.00 0.00 0.00 0.00 0.00 0.00 0.00 0.00 0.00 0.00 0.00 0.00 0.00 0.00 0.00 0.00 0.00 0.00 0.00 0.00 0.00 0.00 0.00 0.00 0.00 0.00 0.00 0.00 0.00 0.01 0.01 0.00 0.00 0.00 0.00 0.00 0.00 0.00 0.00 0.00 0.00 0.00 0.00
0.00 0.00 0.00 0.00 0.00 0.00 0.00 0.00 0.00 0.00 0.00 0.00 0.01 0.00 0.00 0.00 0.00 0.00 0.00 0.00 0.00 0.00 0.00 0.00 0.00 0.00 0.00 0.00 0.00 0.00 0.00 0.00 0.02 0.01 0.00 0.00 0.00 0.00 0.00 0.00 0.00 0.00 0.00 0.00 0.00
0.00 0.00 0.00 0.00 0.00 0.00 0.00 0.00 0.00 0.00 0.00 0.00 0.01 0.01 0.00 0.00 0.00 0.00 0.00 0.00 0.00 0.00 0.00 0.00 0.00 0.00 0.00 0.00 0.00 0.00 0.01 0.04 0.04 0.04 0.01 0.00 0.00 0.00 0.00 0.00 0.00 0.00 0.00 0.00 0.00
0.00 0.00 0.00 0.00 0.00 0.00 0.00 0.00 0.00 0.00 0.00 0.00 0.01 0.00 0.00 0.00 0.00 0.00 0.00 0.00 0.00 0.00 0.00 0.00 0.00 0.00 0.00 0.00 0.00 0.00 0.02 0.11 0.12 0.04 0.01 0.00 0.00 0.00 0.00 0.00 0.00 0.00 0.00 0.00 0.00
0.01 0.01 0.00 0.00 0.00 0.00 0.00 0.00 0.00 0.00 0.00 0.00 0.00 0.00 0.00 0.00 0.00 0.00 0.00 0.00 0.00 0.00 0.00 0.00 0.00 0.00 0.00 0.00 0.00 0.00 0.03 0.13 0.19 0.11 0.07 0.05 0.02 0.00 0.00 0.00 0.00 0.00 0.00 0.00 0.00
0.05 0.05 0.03 0.01 0.01 0.00 0.00 0.00 0.00 0.00 0.00 0.00 0.00 0.01 0.00 0.00 0.00 0.00 0.00 0.00 0.00 0.00 0.00 0.00 0.00 0.00 0.00 0.00 0.00 0.00 0.00 0.03 0.09 0.13 0.04 0.05 0.01 0.00 0.00 0.00 0.00 0.00 0.00 0.00 0.00
0.07 0.07 0.05 0.05 0.01 0.00 0.00 0.00 0.00 0.00 0.00 0.00 0.00 0.00 0.00 0.00 0.00 0.00 0.00 0.00 0.00 0.00 0.00 0.00 0.00 0.00 0.00 0.00 0.00 0.00 0.00 0.01 0.02 0.05 0.02 0.02 0.01 0.00 0.00 0.00 0.00 0.00 0.00 0.00 0.00
0.05 0.05 0.03 0.04 0.00 0.00 0.02 0.03 0.01 0.01 0.02 0.01 0.01 0.00 0.00 0.01 0.00 0.00 0.00 0.00 0.00 0.00 0.00 0.00 0.00 0.00 0.00 0.00 0.00 0.00 0.00 0.00 0.00 0.00 0.01 0.00 0.00 0.00 0.00 0.00 0.01 0.02 0.00 0.00 0.00
0.01 0.02 0.05 0.05 0.04 0.06 0.10 0.05 0.01 0.01 0.05 0.01 0.00 0.00 0.00 0.01 0.00 0.00 0.00 0.00 0.00 0.00 0.00 0.00 0.00 0.00 0.00 0.00 0.00 0.00 0.00 0.00 0.00 0.00 0.00 0.00 0.00 0.00 0.00 0.01 0.05 0.02 0.01 0.00 0.00
0.00 0.00 0.03 0.06 0.07 0.06 0.02 0.00 0.01 0.02 0.02 0.00 0.00 0.00 0.00 0.00 0.00 0.00 0.00 0.00 0.00 0.00 0.00 0.00 0.00 0.00 0.00 0.00 0.00 0.00 0.00 0.01 0.02 0.03 0.03 0.05 0.03 0.00 0.00 0.03 0.12 0.07 0.03 0.03 0.00
MSLP
1018.76 1018.34 1017.95 1017.42 1016.95 1016.65 1016.43 1016.31 1016.20 1016.05 1015.89 1015.76 1015.60 1015.43 1015.20 1014.65 1014.05 1013.91 1013.53 1011.68 1011.05 1010.81 1010.53 1010.48 1010.26 1010.40 1010.68 1010.40 1010.24 1009.81 1009.72 1007.77 1006.66 1006.67 1005.84 1005.28 1005.28 1004.35 1003.86 1003.85 1003.10 1002.75 1003.07 1002.62 1004.37
1018.13 1017.67 1017.23 1016.77 1016.36 1016.03 1015.75 1015.57 1015.35 1015.12 1014.93 1014.88 1014.95 1014.96 1014.78 1014.55 1014.09 1012.73 1010.97 1010.69 1010.51 1009.72 1009.76 1010.17 1010.16 1010.22 1010.21 1009.77 1009.73 1009.16 1008.03 1005.72 1006.26 1006.44 1005.68 1005.52 1005.13 1004.40 1004.39 1004.05 1003.75 1003.15 1002.75 1003.12 1004.11
1017.45 1016.89 1016.46 1016.08 1015.69 1015.29 1014.93 1014.57 1014.30 1014.17 1014.09 1014.01 1014.14 1014.41 1014.43 1014.33 1013.68 1010.89 1009.73 1009.97 1009.62 1009.32 1009.46 1009.56 1009.70 1009.98 1009.66 1009.34 1008.40 1007.92 1005.97 1006.06 1005.71 1005.96 1005.93 1005.40 1004.61 1004.67 1004.40 1003.94 1003.77 1003.80 1002.97 1003.45 1003.83
1016.81 1016.29 1015.84 1015.38 1014.90 1014.55 1014.15 1013.79 1013.49 1013.16 1013.10 1013.12 1013.42 1013.96 1014.21 1014.54 1013.32 1009.83 1009.35 1008.79 1009.44 1009.25 1009.34 1009.14 1009.47 1009.80 1009.26 1008.31 1007.90 1007.51 1005.99 1006.29 1005.89 1005.63 1005.51 1004.95 1004.85 1004.10 1004.02 1003.55 1003.27 1003.50 1003.51 1002.90 1003.69
1016.18 1015.68 1015.17 1014.68 1014.22 1013.80 1013.37 1012.96 1012.52 1012.19 1011.97 1012.05 1012.67 1013.39 1013.91 1014.08 1011.88 1009.83 1009.54 1009.38 1009.61 1009.37 1009.33 1009.32 1009.23 1009.37 1008.89 1007.78 1007.64 1006.71 1005.75 1006.05 1005.71 1005.58 1005.01 1005.04 1004.01 1003.85 1003.24 1003.41 1003.01 1003.21 1003.44 1003.36 1003.12
1015.53 1015.01 1014.45 1013.94 1013.55 1013.02 1012.48 1012.12 1011.70 1011.34 1011.06 1011.03 1011.81 1012.79 1013.47 1013.19 1010.11 1009.70 1009.80 1009.95 1009.76 1009.78 1009.52 1009.50 1009.08 1009.08 1008.89 1008.19 1007.54 1006.63 1006.37 1005.74 1005.47 1005.19 1004.72 1004.46 1003.74 1004.25 1002.49 1002.81 1002.72 1003.03 1003.17 1003.33 1002.95
1014.87 1014.40 1013.87 1013.56 1012.98 1012.42 1011.88 1011.49 1010.96 1010.64 1010.32 1010.54 1011.18 1012.06 1012.05 1009.96 1009.58 1009.53 1009.76 1009.81 1009.72 1009.60 1009.51 1009.09 1009.10 1009.41 1009.04 1008.36 1007.76 1007.21 1006.78 1005.92 1005.19 1004.97 1004.30 1004.56 1003.83 1002.78 1002.54 1002.60 1002.55 1002.64 1002.79 1002.91 1002.76
1014.39 1013.97 1013.49 1013.08 1012.66 1012.06 1011.46 1010.94 1010.44 1009.89 1009.60 1009.95 1011.19 1011.71 1011.04 1010.29 1010.02 1009.84 1009.41 1009.17 1008.84 1008.72 1008.96 1008.80 1008.78 1009.06 1009.13 1008.68 1007.98 1007.36 1006.47 1005.77 1004.12 1004.60 1004.43 1004.16 1002.13 1001.62 1002.28 1002.38 1002.08 1001.98 1002.40 1002.48 1002.42
1014.01 1013.60 1013.19 1012.76 1012.15 1011.69 1011.12 1010.66 1009.91 1009.42 1009.64 1010.48 1011.33 1011.79 1010.85 1010.08 1009.60 1008.52 1008.85 1009.02 1008.43 1007.85 1008.17 1008.14 1008.48 1008.93 1008.98 1008.82 1008.46 1007.45 1006.25 1005.33 1004.47 1003.97 1003.95 1003.89 1001.81 1001.51 1002.13 1001.84 1001.43 1001.39 1001.76 1001.97 1001.86
1013.61 1013.26 1012.87 1012.40 1011.80 1011.33 1010.99 1010.85 1010.89 1010.72 1010.87 1011.05 1011.90 1012.59 1010.99 1009.65 1008.75 1008.53 1008.53 1008.52 1008.25 1008.14 1008.03 1007.91 1008.24 1008.70 1008.89 1008.84 1007.70 1007.37 1006.61 1005.68 1004.44 1003.97 1003.57 1002.86 1001.08 1001.63 1001.64 1001.45 1000.90 1000.75 1000.73 1001.08 1001.14
1013.10 1012.77 1012.41 1011.92 1011.41 1010.75 1011.02 1011.22 1011.53 1011.60 1011.35 1010.67 1010.89 1010.63 1010.00 1010.29 1010.00 1009.22 1008.79 1008.61 1008.63 1008.64 1008.67 1008.48 1008.58 1008.28 1008.35 1008.27 1008.27 1007.97 1007.21 1006.21 1005.26 1004.77 1003.90 1003.25 1002.78 1002.38 1001.69 1001.20 1000.78 1000.25 1000.06 1000.20 1000.25
1012.48 1012.07 1011.77 1011.48 1011.18 1010.80 1010.66 1011.32 1011.90 1012.17 1011.24 1010.78 1010.73 1010.77 1010.22 1010.37 1010.32 1008.95 1008.79 1009.17 1008.85 1008.69 1008.73 1009.14 1008.46 1008.19 1008.03 1008.28 1008.30 1007.92 1007.30 1005.47 1005.20 1004.96 1004.58 1003.99 1002.74 1002.58 1001.56 1000.65 999.96 999.76 999.65 999.49 999.70
1011.76 1011.28 1011.10 1010.98 1011.15 1011.51 1011.72 1011.99 1012.08 1011.82 1011.64 1010.83 1010.62 1010.37 1009.92 1009.85 1009.64 1008.62 1008.40 1008.36 1008.59 1008.68 1008.79 1009.04 1007.81 1007.57 1008.03 1007.91 1007.81 1007.19 1006.91 1006.66 1006.14 1005.04 1004.81 1004.28 1002.63 1002.38 1001.38 1000.72 999.77 999.04 998.65 998.73 998.53
1010.97 1010.60 1010.53 1010.85 1011.46 1012.17 1012.65 1012.53 1012.17 1012.05 1011.71 1010.99 1010.11 1009.25 1009.07 1008.89 1008.78 1007.94 1007.83 1008.20 1008.36 1008.53 1008.56 1008.71 1008.01 1007.72 1007.74 1007.64 1007.47 1007.00 1006.57 1006.54 1006.83 1006.45 1005.77 1004.83 1002.50 1001.43 1000.71 999.89 999.25 998.53 998.15 997.90 997.69
1010.43 1010.21 1010.14 1010.51 1011.74 1012.25 1012.56 1012.52 1012.55 1012.29 1012.09 1010.73 1009.65 1008.75 1008.78 1009.05 1008.51 1007.62 1007.51 1007.87 1008.29 1008.47 1008.95 1008.80 1008.13 1007.80 1007.57 1007.28 1007.44 1007.15 1006.86 1007.18 1007.27 1007.14 1006.87 1005.83 1004.64 1001.35 1000.81 999.94 998.79 998.04 997.48 997.36 997.04
1011.34 1011.50 1011.55 1011.82 1012.41 1012.82 1012.70 1012.65 1012.67 1012.80 1012.48 1011.04 1009.91 1009.41 1009.43 1008.96 1008.86 1008.28 1008.05 1007.92 1007.96 1008.55 1008.91 1008.98 1008.36 1008.18 1007.44 1007.12 1007.39 1007.23 1007.55 1007.41 1007.42 1007.45 1007.02 1005.53 1004.76 1001.36 1000.25 998.69 998.12 997.66 997.12 996.83 996.49
1012.43 1012.20 1012.04 1012.40 1013.07 1013.16 1013.12 1013.08 1013.17 1013.31 1012.76 1011.82 1010.77 1010.27 1009.87 1009.30 1008.68 1008.72 1008.90 1008.69 1008.82 1009.27 1009.66 1009.54 1008.77 1007.74 1007.45 1007.60 1007.53 1007.83 1008.47 1009.08 1008.49 1007.94 1005.86 1004.49 1004.00 1000.77 999.29 997.89 997.25 996.98 996.62 996.50 996.20
1013.52 1013.05 1013.30 1013.23 1013.61 1013.74 1013.58 1013.40 1013.92 1013.34 1013.06 1012.48 1012.17 1011.62 1011.33 1010.31 1009.84 1009.60 1009.84 1009.61 1009.28 1009.90 1010.49 1010.53 1009.70 1008.55 1008.24 1007.96 1008.36 1008.46 1008.96 1010.40 1009.71 1008.63 1007.18 1005.40 1002.85 999.41 998.25 997.57 996.67 996.36 996.00 995.93 995.59
1013.89 1014.09 1014.50 1014.81 1014.34 1014.12 1014.16 1014.36 1013.86 1013.46 1013.11 1013.00 1012.79 1012.39 1011.41 1010.81 1011.10 1010.90 1010.84 1010.63 1010.06 1010.24 1011.24 1011.51 1009.96 1009.12 1008.41 1008.22 1008.37 1008.80 1009.06 1009.73 1009.73 1009.03 1008.03 1005.98 1002.22 999.82 998.47 996.78 996.14 995.73 995.74 995.34 995.11
1014.49 1014.89 1015.29 1015.18 1014.80 1014.59 1014.89 1014.64 1013.91 1013.41 1013.39 1013.42 1013.20 1013.18 1012.55 1011.73 1011.68 1011.89 1011.27 1010.85 1010.60 1010.67 1010.98 1012.05 1011.47 1009.84 1009.05 1008.32 1008.43 1009.09 1009.27 1009.42 1009.57 1008.57 1007.11 1004.73 1001.95 999.72 997.79 996.85 996.61 996.37 995.98 995.14 994.70
1014.72 1015.21 1015.33 1015.32 1015.22 1015.38 1015.53 1014.80 1013.87 1013.60 1013.49 1013.62 1013.43 1013.43 1013.01 1012.71 1012.41 1012.53 1011.66 1010.86 1010.57 1010.93 1011.31 1012.18 1012.84 1011.25 1010.29 1009.79 1009.77 1009.88 1009.92 1010.48 1010.09 1008.30 1006.27 1004.62 1000.78 999.04 997.98 996.84 997.08 996.60 996.33 995.95 995.43
1014.85 1015.37 1015.48 1015.60 1016.11 1015.97 1015.39 1014.32 1013.79 1013.49 1013.73 1013.69 1013.77 1013.37 1013.06 1012.80 1012.55 1012.28 1011.55 1010.66 1010.38 1010.75 1011.55 1012.16 1013.40 1013.53 1012.10 1010.82 1010.37 1010.45 1010.64 1010.72 1010.70 1009.10 1007.42 1004.30 999.68 999.12 998.87 998.62 998.30 997.43 996.90 996.41 995.63
1015.12 1015.59 1015.67 1015.74 1015.81 1015.71 1015.16 1014.22 1013.67 1013.44 1013.34 1013.42 1013.27 1013.14 1012.97 1012.84 1012.94 1011.96 1011.18 1010.32 1010.35 1010.76 1011.33 1012.08 1013.60 1014.53 1013.05 1012.18 1011.44 1011.16 1010.75 1010.55 1010.62 1009.65 1007.09 1004.64 1001.06 999.72 998.99 998.50 998.40 998.04 997.16 996.48 995.78
1015.13 1015.54 1015.90 1015.70 1015.34 1015.18 1014.78 1013.89 1013.35 1012.67 1012.62 1012.54 1012.58 1012.77 1013.02 1012.71 1012.32 1011.90 1011.15 1010.31 1010.23 1010.69 1011.14 1012.01 1013.46 1014.30 1014.27 1013.35 1012.73 1012.02 1010.71 1010.23 1010.39 1009.40 1007.25 1005.41 1003.53 1000.71 1000.30 1000.20 999.24 998.45 997.65 996.89 995.79
1014.54 1014.56 1014.76 1015.04 1014.81 1014.62 1014.46 1013.64 1012.97 1012.58 1012.55 1012.34 1012.13 1011.90 1012.10 1012.15 1011.63 1011.13 1010.99 1010.65 1010.31 1010.57 1011.29 1012.37 1013.63 1014.01 1013.55 1013.17 1012.49 1011.42 1010.01 1009.21 1008.88 1008.33 1007.66 1004.88 1003.80 1002.60 1002.50 1001.75 1000.98 1000.40 999.36 997.76 996.01
1013.87 1014.08 1014.31 1014.00 1014.02 1013.87 1013.74 1013.06 1012.46 1011.91 1012.05 1011.58 1011.33 1010.67 1011.15 1010.78 1010.56 1010.36 1010.31 1010.53 1010.59 1011.13 1011.94 1012.89 1013.54 1013.60 1012.91 1012.61 1011.78 1010.42 1009.14 1008.22 1007.70 1007.03 1006.33 1005.17 1004.13 1004.13 1003.56 1003.01 1002.07 1001.58 1000.67 999.02 997.33
1013.10 1013.49 1013.67 1012.95 1013.08 1013.12 1012.63 1011.86 1011.42 1011.47 1010.81 1010.12 1010.05 1010.39 1010.14 1009.38 1009.60 1009.77 1009.98 1010.13 1010.28 1010.95 1012.03 1013.02 1013.61 1014.03 1012.59 1012.16 1011.44 1009.89 1008.07 1007.32 1007.34 1007.54 1006.98 1006.61 1006.35 1005.24 1004.12 1003.54 1003.33 1002.51 1001.63 1000.60 999.50
Thickness
5670 5670 5670 5670 5670 5668 5664 5659 5655 5651 5649 5644 5642 5639 5635 5636 5636 5633 5630 5641 5641 5637 5635 5630 5629 5623 5616 5616 5620 5624 5611 5633 5655 5656 5671 5689 5681 5697 5708 5707 5720 5728 5724 5741 5732
5671 5671 5670 5669 5668 5666 5663 5660 5657 5654 5651 5645 5638 5631 5627 5624 5622 5628 5637 5635 5631 5629 5623 5611 5604 5601 5599 5604 5601 5603 5610 5645 5656 5653 5657 5671 5671 5680 5680 5685 5698 5714 5726 5727 5726
5670 5670 5670 5669 5667 5666 5664 5661 5658 5653 5647 5642 5634 5626 5618 5610 5607 5629 5630 5621 5618 5612 5605 5597 5589 5582 5587 5593 5599 5603 5616 5644 5641 5644 5645 5655 5665 5667 5665 5672 5688 5693 5711 5712 5719
5670 5669 5668 5667 5666 5664 5663 5659 5655 5651 5644 5636 5625 5615 5605 5592 5599 5616 5617 5612 5599 5592 5583 5580 5573 5566 5572 5583 5596 5583 5617 5617 5625 5631 5635 5644 5652 5655 5658 5673 5687 5692 5698 5709 5706
5668 5667 5666 5665 5664 5661 5658 5654 5651 5647 5640 5630 5616 5604 5592 5579 5588 5589 5588 5587 5579 5570 5563 5559 5560 5559 5561 5577 5578 5583 5606 5599 5611 5615 5624 5628 5644 5650 5656 5668 5679 5685 5688 5695 5703
5666 5666 5665 5663 5661 5658 5655 5650 5646 5640 5633 5623 5608 5592 5577 5565 5585 5576 5566 5555 5551 5547 5545 5544 5546 5545 5549 5554 5559 5576 5578 5587 5595 5599 5611 5617 5633 5622 5660 5664 5668 5672 5676 5683 5694
5664 5663 5661 5658 5656 5651 5649 5644 5640 5634 5626 5613 5599 5583 5571 5582 5568 5562 5549 5540 5533 5532 5530 5531 5530 5524 5529 5539 5545 5552 5551 5564 5577 5589 5600 5604 5597 5623 5656 5653 5655 5661 5665 5673 5683
5660 5658 5656 5653 5648 5643 5642 5637 5633 5627 5618 5603 5582 5570 5562 5563 5552 5540 5533 5527 5527 5525 5522 5522 5518 5517 5516 5525 5529 5536 5542 5544 5584 5580 5584 5586 5595 5639 5637 5635 5645 5655 5652 5661 5673
5656 5652 5649 5645 5641 5636 5634 5629 5625 5618 5604 5584 5566 5551 5546 5541 5535 5536 5521 5514 5516 5520 5517 5516 5508 5503 5508 5506 5508 5524 5532 5542 5563 5569 5566 5566 5592 5623 5618 5627 5638 5649 5647 5651 5664
5651 5646 5642 5638 5634 5629 5626 5616 5606 5596 5580 5565 5547 5525 5525 5529 5524 5516 5509 5504 5505 5503 5504 5502 5495 5486 5490 5493 5501 5514 5520 5535 5548 5560 5562 5570 5593 5606 5607 5614 5630 5641 5646 5645 5658
5646 5640 5635 5632 5627 5622 5613 5602 5593 5579 5563 5561 5541 5528 5521 5504 5494 5495 5492 5491 5488 5486 5477 5486 5477 5485 5489 5486 5491 5495 5501 5508 5521 5539 5548 5551 5560 5575 5589 5600 5611 5632 5642 5644 5652
5642 5637 5630 5625 5619 5611 5602 5589 5572 5557 5554 5543 5523 5511 5502 5487 5473 5480 5479 5471 5474 5472 5473 5466 5464 5481 5486 5484 5479 5482 5487 5511 5519 5527 5526 5531 5549 5556 5574 5591 5613 5622 5631 5641 5650
5639 5635 5626 5619 5609 5595 5582 5568 5552 5543 5531 5527 5510 5497 5489 5479 5466 5473 5476 5471 5467 5462 5461 5453 5475 5485 5476 5477 5478 5487 5485 5488 5494 5511 5511 5519 5533 5542 5563 5578 5600 5618 5634 5636 5647
5637 5630 5620 5609 5596 5579 5563 5551 5541 5528 5518 5511 5500 5492 5484 5477 5467 5475 5474 5471 5469 5463 5464 5457 5468 5473 5471 5471 5477 5470 5492 5490 5484 5485 5481 5511 5521 5543 5559 5573 5587 5608 5621 5640 5648
5631 5623 5613 5599 5582 5569 5555 5540 5525 5512 5472 5501 5490 5483 5476 5465 5465 5473 5472 5466 5457 5458 5461 5453 5460 5461 5463 5468 5468 5466 5479 5472 5472 5475 5476 5484 5485 5532 5549 5561 5585 5607 5623 5634 5649
5614 5604 5593 5582 5567 5552 5539 5525 5512 5479 5440 5482 5479 5464 5455 5460 5459 5463 5462 5461 5461 5453 5450 5445 5459 5457 5459 5469 5463 5469 5458 5459 5462 5466 5450 5479 5489 5515 5545 5577 5592 5601 5616 5629 5638
5597 5589 5579 5565 5549 5535 5522 5509 5480 5451 5473 5471 5457 5452 5447 5444 5451 5451 5447 5448 5442 5422 5420 5431 5439 5456 5460 5449 5451 5450 5431 5385 5381 5425 5459 5498 5481 5511 5549 5575 5588 5597 5608 5616 5627
5578 5571 5558 5546 5531 5516 5503 5485 5445 5470 5457 5449 5436 5430 5425 5440 5440 5435 5430 5423 5439 5429 5388 5388 5412 5442 5443 5440 5428 5432 5427 5390 5388 5365 5420 5467 5480 5529 5553 5566 5581 5588 5602 5610 5619
5563 5552 5538 5523 5513 5499 5484 5443 5455 5461 5453 5436 5423 5414 5424 5432 5418 5418 5417 5414 5430 5423 5391 5359 5419 5435 5442 5437 5430 5418 5400 5418 5412 5418 5409 5430 5491 5523 5542 5565 5577 5591 5598 5608 5618
5547 5534 5519 5507 5496 5485 5459 5462 5463 5450 5429 5417 5411 5403 5401 5416 5405 5371 5394 5415 5419 5420 5403 5389 5372 5421 5431 5433 5424 5417 5414 5401 5392 5394 5416 5436 5470 5493 5539 5553 5562 5570 5579 5597 5612
5534 5519 5510 5496 5483 5471 5436 5435 5451 5436 5422 5409 5402 5394 5401 5392 5386 5377 5382 5404 5413 5406 5396 5369 5362 5394 5410 5408 5394 5379 5394 5384 5386 5413 5415 5419 5483 5522 5530 5545 5542 5551 5560 5568 5581
5519 5515 5496 5484 5470 5437 5447 5452 5449 5430 5408 5402 5392 5391 5386 5394 5374 5378 5390 5397 5406 5399 5388 5382 5350 5353 5366 5390 5397 5391 5361 5374 5372 5367 5386 5418 5491 5501 5498 5505 5517 5534 5547 5559 5575
5506 5493 5483 5472 5461 5447 5430 5442 5437 5420 5408 5396 5393 5389 5388 5387 5371 5377 5390 5402 5397 5391 5375 5372 5333 5307 5340 5349 5370 5358 5383 5376 5367 5371 5396 5425 5461 5483 5486 5499 5504 5518 5538 5551 5567
5495 5490 5471 5462 5455 5449 5443 5436 5424 5418 5409 5402 5393 5388 5376 5377 5384 5366 5384 5397 5395 5387 5391 5375 5345 5323 5317 5312 5305 5320 5355 5369 5360 5363 5394 5397 5417 5463 5470 5466 5487 5502 5529 5537 5553
5493 5491 5473 5458 5447 5440 5432 5421 5419 5407 5399 5393 5383 5382 5372 5364 5365 5371 5376 5378 5387 5390 5378 5353 5329 5329 5337 5343 5338 5341 5356 5367 5366 5373 5373 5404 5422 5444 5434 5447 5461 5475 5494 5523 5546
5489 5480 5466 5463 5444 5431 5425 5415 5408 5406 5392 5386 5379 5387 5374 5363 5374 5364 5367 5360 5360 5358 5343 5319 5323 5348 5349 5349 5349 5355 5371 5375 5381 5393 5396 5405 5417 5412 5420 5429 5448 5457 5472 5499 5525
5483 5471 5461 5466 5450 5431 5415 5414 5413 5397 5396 5398 5385 5375 5374 5378 5376 5373 5368 5367 5367 5346 5327 5321 5318 5308 5341 5345 5344 5338 5372 5383 5380 5369 5375 5381 5379 5397 5408 5422 5425 5440 5454 5471 5491